Location: Lane
(33.5226°N, 79.8788°W)
Time: 19:41:57
(UTC+00:00)

Transit 2A - Pass Details

Date: 03 October 2022
Orbit: 598 x 959 km, 66.7° (Epoch: 03 December)

Event Time Altitude Azimuth Distance (km) Brightness Sun altitude
Rises 14:21:54 0° 318° (NW) 3,048 8.6 35.6°
Reaches altitude 10° 14:24:27 10° 305° (NW) 2,185 8.0 36.0°
Maximum altitude 14:28:30 25° 251° (WSW) 1,472 7.4 36.7°
Drops below altitude 10° 14:32:53 10° 196° (SSW) 2,371 8.9 37.4°
Sets 14:35:48 0° 184° (S) 3,366 9.7 37.9°
